Regional Weather Roundup
Issued by NWS

Home | Current Version | Previous Version | Text Only | Print | Product List | Glossary On
Versions: 1 2 3 4 5 6 7 8 9 10 11 12 13 14 15 16 17 18 19 20 21 22 23 24 25 26 27
000
ASUS45 KBOU 200007
RWRCO

WEATHER ROUNDUP FOR COLORADO
NATIONAL WEATHER SERVICE DENVER/BOULDER CO
500 PM MST SUN FEB 19 2017

NOTE: "FAIR" INDICATES FEW OR NO CLOUDS BELOW 12000 FEET WITH NO
SIGNIFICANT WEATHER AND/OR OBSTRUCTIONS TO VISIBILITY.

COZ001>005-013-030-031-200100-
...NORTHWEST COLORADO...

CITY           SKY/WX    TMP DP  RH WIND       PRES   REMARKS
CRAIG          LGT RAIN  38  34  85 SW5       29.76R FOG
HAYDEN         CLOUDY    37  32  81 CALM      29.75R
MEEKER         CLOUDY    41  35  79 SW10      29.77R
MOUNT WERNER   NOT AVBL
STEAMBOAT SPGS CLOUDY    36  33  90 CALM      29.74S
WALDEN         NOT AVBL
$$

COZ006>008-011-200100-
...WEST CENTRAL VALLEYS...

CITY           SKY/WX    TMP DP  RH WIND       PRES   REMARKS
GRAND JUNCTION CLOUDY    45  39  79 N8        29.79S
MONTROSE       MOCLDY    45  29  53 NE5       29.82R
EAGLE          CLOUDY    39  32  75 SW18      29.76R
RIFLE          CLOUDY    42  35  76 W23G35    29.78R
DELTA          MOCLDY    48  35  61 E10       29.81R
NUCLA          MOCLDY    45  32  61 SW9       29.86R
$$

COZ017>023-064>068-200100-
...SOUTHWEST COLORADO...

CITY           SKY/WX    TMP DP  RH WIND       PRES   REMARKS
DURANGO        LGT RAIN  40  29  64 W16       29.85R
CORTEZ         PTSUNNY   39  35  86 S9        29.86R
PAGOSA SPRINGS MOCLDY    37  29  74 S8        29.87R
TELLURIDE      NOT AVBL
WOLF CREEK PAS SNOW      19  19 100 S22G30    29.89R VSB 1/4 WCI   3
$$

COZ009-010-012-014-032>034-037-058>063-200100-
...CENTRAL COLORADO...

CITY           SKY/WX    TMP DP  RH WIND       PRES   REMARKS
ASPEN          CLOUDY    36  29  75 NE5       29.76R
BUENA VISTA    CLOUDY    40  26  55 W26       29.71R
COPPER MTN     LGT SNOW  28  21  74 MISG      29.79S VSB 3/4
BERTHOUD PASS  SNOW      21  12  68 CALM      29.81R VSB<1/4
COTTONWOOD PAS LGT SNOW  34  23  64 W22G36    29.74S WCI  22
GUNNISON       MOCLDY    39  23  52 NW12G20   29.80R
KREMMLING      CLOUDY    43  34  70 CALM      29.73R
LEADVILLE      HVY SNOW  28  27  93 W6        29.75R VSB 1/4 WCI  22
MONARCH PASS   SNOW      21  19  93 MISG      29.88S VSB<1/4
SALIDA         FAIR      46  26  45 SW20G25   29.79R
SUNLIGHT       NOT AVBL
WILKERSON PASS FAIR      30  21  69 SW15G26   29.78S WCI  19
$$

COZ069>075-200100-
...SAN LUIS VALLEY/SANGRE DE CRISTO MOUNTAINS...

CITY           SKY/WX    TMP DP  RH WIND       PRES   REMARKS
ALAMOSA        FAIR      39  26  59 SW22G31   29.77R
LA VETA PASS   FAIR      30  21  69 NE16G39   29.79R WCI  19
SAGUACHE       MOCLDY    45  18  33 W20G25    29.74R
$$

COZ035-036-038>040-200100-
...NORTHERN COLORADO FRONT RANGE...

CITY           SKY/WX    TMP DP  RH WIND       PRES   REMARKS
DENVER INTL AP MOCLDY    57  28  33 S23       29.55R
DMNS CITY PARK   N/A     59  26  27 SE15      29.55R
AURORA         MOCLDY    56  27  32 S25G32    29.55S
FRONT RANGE AP NOT AVBL
ERIE MUNI ARPT FAIR      56  24  29 N5        29.56R
BOULDER MUN AP FAIR      55  28  35 N6        29.56R
CENTENNIAL     MOCLDY    56  23  27 S23G29    29.56R
BROOMFIELD     CLOUDY    55  25  30 N10       29.57R
FORT COLLINS   FAIR      55  26  32 N6        29.57R
LONGMONT       MOCLDY    58  26  29 N7        29.58R
$$

COZ041-046-047-076>085-087-088-200100-
...PIKES PEAK/PALMER DIVIDE AND SOUTHERN FOOTHILLS...

CITY           SKY/WX    TMP DP  RH WIND       PRES   REMARKS
COLO. SPRINGS  MOCLDY    55  19  24 S18       29.61R
A. F. ACADEMY  FAIR      53  23  31 W5        29.59F
SCHRIEVER AFB  FAIR      54  17  23 S24G31    29.62R
ELLICOTT       FAIR     N/A N/A N/A S21G28    29.63R
FALCON         FAIR      51  16  24 S18       29.64S
FORT CARSON    FAIR      56  23  27 S18G24    29.60R
LIMON          FAIR      55  22  27 S17G33    29.62R
MONUMENT HILL  FAIR      46  23  39 S13G26    29.64S
TRINIDAD       FAIR      55  14  19 S26G33    29.67R
$$

COZ042>045-048>051-090-091-200100-
...NORTHEAST COLORADO...

CITY           SKY/WX    TMP DP  RH WIND       PRES   REMARKS
GREELEY ARPT   FAIR      56  28  34 E5        29.55S HAZE
AKRON          FAIR      59  32  36 S24G31    29.56F
BURLINGTON     MOCLDY    62  35  36 S24       29.67S
WRAY           NOT AVBL
STERLING       FAIR      61  34  36 S14       29.54S
HOLYOKE        FAIR      63  37  39 SE20G25   29.57F
FORT MORGAN    FAIR      58  31  34 S20G29    29.55S
$$

COZ086-089-092>099-200100-
...SOUTHEAST COLORADO...

CITY           SKY/WX    TMP DP  RH WIND       PRES   REMARKS
PUEBLO         FAIR      62  22  21 S18       29.58S
LA JUNTA       FAIR      61  32  33 S18G26    29.63R
LAMAR          FAIR      63  27  25 S23G29    29.61S
SPRINGFIELD      N/A     55  32  41 S22G29    29.72R
$$




USA.gov is the U.S. government's official web portal to all federal, state and local government web resources and services.